Location: ActonStarParty
(42.4766°N, 71.4538°W)
Time: 17:08:53
(UTC-04:00)

Daily predictions for brighter satellites

Satellite Brightness Start Highest point End
(mag) Time Altitude Azimuth Time Altitude Azimuth Time Altitude Azimuth
Cosmos 2366 rocket 4.0 18:10:54 10° S 18:17:06 82° E 18:23:17 10° N
COSMOS 2428 3.1 18:13:31 10° NNW 18:18:55 43° ENE 18:24:18 10° SE
BREEZE-M DEB (TANK) 4.3 18:02:41 10° W 18:20:07 74° NNW 18:24:48 10° ENE
Cosmos 2151 2.9 18:16:29 10° N 18:20:45 68° E 18:24:57 10° SSE
Cosmos 2333 Rocket 3.2 18:16:46 10° N 18:21:32 26° NE 18:26:17 10° ESE
CORIOLIS 4.2 18:16:24 10° SSE 18:21:48 85° ENE 18:27:15 10° NNW
Cosmos 2058 2.9 18:18:16 10° N 18:22:27 70° E 18:26:34 10° SSE
Cosmos 1833 4.3 18:17:23 10° SSW 18:23:04 83° WNW 18:28:44 10° NNE
Cosmos 2219 3.9 18:18:28 10° SSE 18:23:35 34° ESE 18:28:43 10° NE
MOS 1 4.4 18:20:37 10° SE 18:26:06 53° ENE 18:31:37 10° N
Cosmos 44 Rocket 3.5 18:22:13 10° S 18:26:44 49° ESE 18:31:16 10° NE
Cosmos 158 Rocket 4.1 18:25:32 10° S 18:30:26 53° ESE 18:35:31 10° NNE
Cosmos 2297 Rocket 3.9 18:29:33 10° ESE 18:30:42 11° E 18:31:50 10° E
Abrixas 2.2 18:29:17 10° SW 18:31:19 41° SSE 18:33:00 13° ENE
Cosmos 1048 Rocket 4.2 18:30:50 10° S 18:35:44 49° ESE 18:40:40 10° NNE
APEX 2.6 18:32:54 10° S 18:35:57 52° ESE 18:38:41 10° NE
BREEZE-M DEB (TANK) 2.9 18:34:17 10° WNW 18:36:19 28° SW 18:38:07 10° SSE
ERS-2 2.5 18:34:17 10° S 18:37:58 72° WSW 18:41:41 10° NNW
YAOGAN 1 2.6 18:35:52 10° SSE 18:40:11 89° WSW 18:44:33 10° NNW
Cosmos 1420 Rocket 4.0 18:36:09 10° NNW 18:41:30 84° ENE 18:46:46 10° SSE
Cosmos 1633 Rocket 4.3 18:39:11 10° NNE 18:42:31 20° ENE 18:45:50 10° ESE
Cosmos 1726 2.8 18:41:46 10° SSE 18:45:05 32° E 18:48:24 10° NNE
GRACE-2 3.5 18:42:37 10° S 18:45:08 65° E 18:47:42 10° N
CZ-4 R/B 2.4 18:41:07 10° S 18:45:13 53° W 18:49:17 10° NNW
Cosmos 2322 4.1 18:39:31 10° NNW 18:45:14 70° WSW 18:50:53 10° SSE
EO 1 Del DPAF 3.2 18:43:47 10° NNE 18:47:39 83° ESE 18:51:30 10° SSW
CZ-2C R/B 4.3 18:44:07 10° N 18:48:34 59° WNW 18:52:55 10° SSW
GRACE-1 3.6 18:48:14 10° S 18:50:47 88° ESE 18:53:23 10° N
NOAA 12 4.2 18:45:52 10° SSE 18:51:01 54° ENE 18:56:13 10° N
Cosmos 1934 Rocket 4.5 18:45:26 10° SSE 18:51:13 38° E 18:57:01 10° NNE
Cosmos 2219 Rocket 2.4 18:46:20 10° NNW 18:51:46 48° ENE 18:57:10 10° SE
Cosmos 1821 Rocket 4.1 18:46:55 10° SSE 18:52:51 51° E 18:58:53 10° NNE
METEOR-M 4.1 18:51:13 10° SSE 18:56:34 90° WSW 19:01:57 10° NNW
BREEZE-M DEB (TANK) 2.6 18:55:50 10° W 18:57:55 36° NNW 18:58:56 21° NE
Cosmos 2221 2.5 18:57:01 10° S 19:01:20 90° E 19:05:44 10° N
Cosmos 2084 3.6 18:58:33 10° NNW 19:02:11 42° NE 19:04:14 22° ESE
ALOS 2.2 18:57:40 10° SSE 19:02:16 62° ENE 19:06:54 10° N
Thor Agena Rocket 4.0 18:57:57 10° NNE 19:02:38 36° E 19:07:15 10° SSE
Cosmos 1315 Rocket 3.7 19:00:34 10° NNW 19:04:34 53° W 19:08:34 10° S
Cosmos 921 Rocket 4.3 19:01:24 10° NNW 19:05:37 44° WSW 19:09:44 10° S
SKYMED 2 3.7 19:02:09 10° N 19:06:30 77° WNW 19:10:50 10° SSW
Cosmos 1331 Rocket 4.4 19:04:09 10° N 19:09:02 39° ENE 19:12:26 18° ESE
Cosmos 2123 Rocket 4.0 19:16:53 10° N 19:23:03 60° E 19:29:15 10° SSE
BREEZE-M R/B 3.0 19:21:01 10° SSW 19:23:15 34° SSE 19:23:15 34° SSE
SJ-6B 3.3 19:25:54 36° NE 19:25:54 36° NE 19:28:54 10° N
In-Cosmos 22 Rocket 4.3 19:21:22 10° N 19:27:04 58° ENE 19:32:47 10° SSE
Cosmos 1605 Rocket 4.1 19:21:32 10° SSE 19:27:21 49° E 19:33:11 10° NNE
Lacrosse 5 rocket 3.8 19:26:19 10° NNW 19:27:49 12° N 19:29:07 10° NNE
Cosmos 2237 Rocket 2.3 19:23:28 10° NNW 19:29:02 52° ENE 19:31:45 29° ESE
Cosmos 1269 Rocket 4.5 19:25:40 10° SSW 19:30:53 63° WNW 19:36:10 10° NNE
Cosmos 44 4.2 19:27:09 10° WSW 19:31:15 40° NW 19:35:22 10° NNE
H-2A R/B 2.6 19:32:05 29° SSE 19:33:56 67° ENE 19:37:51 10° N
Aureole 2 Rocket 3.4 19:30:51 10° NNW 19:34:44 58° WSW 19:38:44 10° S
Cosmos 1470 Rocket 4.5 19:32:14 10° N 19:35:14 32° NE 19:35:14 32° NE
Cosmos 2227 Rocket 2.3 19:31:10 10° S 19:36:35 49° ESE 19:39:16 28° NE
Cosmos 1302 Rocket 4.4 19:33:27 10° N 19:38:22 40° ENE 19:38:38 40° ENE
NOSS 0 Rocket 3.8 19:33:35 10° NNW 19:39:47 85° ENE 19:44:52 16° SSE
SL-16 R/B 3.1 19:36:43 10° N 19:41:21 29° NE 19:41:21 29° NE
SWAS 4.3 19:37:59 10° SSW 19:42:12 65° ESE 19:42:35 61° E
Iridium 4 Rocket 4.5 19:37:28 10° SSW 19:42:59 55° W 19:48:48 10° N
Gbstr 26 Del rocket 4.1 19:38:21 10° WNW 19:43:23 58° SW 19:47:06 23° SSE
Abrixas rocket 3.3 19:41:00 10° NW 19:43:32 36° NNW 19:43:32 36° NNW
Cosmos 1300 3.2 19:44:51 10° SSW 19:48:37 59° W 19:52:25 10° N
Cosmos 494 Rocket 3.8 19:44:14 10° SSW 19:49:19 79° ESE 19:52:56 20° NNE
Sich 1 3.5 19:45:59 10° NNW 19:50:18 61° W 19:54:39 10° S
BREEZE M DEB (TANK) 4.2 19:32:50 10° WNW 19:50:34 71° NNE 19:52:21 45° E
Cosmos 1980 3.6 19:47:50 10° NNW 19:53:32 86° ENE 19:55:59 36° SSE
ATLAS 5 CENTAUR R/B 4.4 19:51:56 10° N 19:53:42 11° NNE 19:54:06 11° NNE
Resurs 01 Rocket 3.3 19:57:31 22° NNE 19:57:31 22° NNE 19:59:13 10° N
Cosmos 1110 Rocket 4.2 19:52:23 10° NNW 19:57:42 71° WSW 20:01:18 20° S
CZ-4C R/B 3.1 19:52:44 10° WSW 19:57:49 46° NW 20:02:54 13° NNE
Meteor 2-3 Rocket 3.7 19:54:36 10° N 20:00:18 60° ENE 20:00:30 59° E
Cosmos 1447 Rocket 4.4 19:54:27 10° N 20:00:45 64° E 20:02:38 45° SE
USA 32 3.8 19:58:57 10° N 20:04:13 77° E 20:04:45 69° SE
Cosmos 2333 Rocket 2.9 20:00:32 10° NNW 20:06:06 53° WSW 20:11:07 13° S
Cosmos 2297 Rocket 2.0 20:08:07 10° SSW 20:13:46 82° ESE 20:14:05 78° ENE
Cosmos 1328 Rocket 4.3 20:16:04 10° SSW 20:25:10 - N 20:19:44 49° WSW
Envisat 4.0 20:24:49 36° N 20:24:49 36° N 20:27:49 10° N
Cosmos 2082 3.6 20:18:30 10° SSW 20:24:14 85° WNW 20:24:19 84° NW
Cosmos 2251 Rocket 3.7 20:19:40 10° SSW 20:24:57 71° WNW 20:25:27 66° NNW
Cosmos 2219 Rocket 4.2 20:30:55 10° NW 20:35:22 25° WSW 20:39:50 10° SSW
USA 267 4.0 20:48:34 41° SSW 20:48:34 41° SSW 20:52:40 10° SW
BREEZE-M DEB (TANK) 4.3 20:55:18 10° WNW 21:04:20 44° WSW 21:04:20 44° WSW
Cosmos 2237 Rocket 4.1 21:08:18 10° NW 21:12:43 23° W 21:13:39 22° WSW
Cosmos 2227 Rocket 4.0 21:16:09 10° WSW 21:20:53 27° NW 21:21:12 27° NW
USA 234 4.4 21:23:45 35° NNW 21:23:45 35° NNW 21:27:42 10° NW
SL-16 R/B 4.0 21:20:33 10° NW 21:23:15 27° NW 21:23:15 27° NW
